Regional Weather Roundup
Issued by NWS

Home | Current Version | Previous Version | Text Only | Print | Product List | Glossary Off
Versions: 1 2 3 4 5 6 7 8 9 10 11 12 13 14 15 16 17 18 19 20 21 22 23 24 25 26 27 28 29 30 31 32 33 34 35 36 37 38 39 40 41 42 43 44 45 46 47 48 49 50

000
ASUS43 KBIS 191110
RWRND
NORTH DAKOTA REGIONAL WEATHER ROUNDUP
NATIONAL WEATHER SERVICE EASTERN NORTH DAKOTA/GRAND FORKS ND
600 AM CDT THU APR 19 2018

  NOTE: "FAIR" INDICATES FEW OR NO CLOUDS BELOW 12,000 FEET WITH NO
  SIGNIFICANT WEATHER AND/OR OBSTRUCTIONS TO VISIBILITY.

NDZ001>003-009>011-017-191200-
...NORTHWEST NORTH DAKOTA...

CITY           SKY/WX    TMP DP  RH WIND       PRES   REMARKS
WILLISTON      FOG       33  33 100 NE7       30.37S VSB 3/4 WCI  27
MINOT          CLOUDY    35  33  92 W8        30.37R FOG     WCI  29
MINOT AFB      CLOUDY    34  34 100 NW9       30.36R FOG     WCI  26
$$

NDZ018>021-031>035-040>046-191200-
...SOUTHWEST NORTH DAKOTA...

CITY           SKY/WX    TMP DP  RH WIND       PRES   REMARKS
BISMARCK       FAIR      27  26  96 SW3       30.39R
DICKINSON      SNOW      26  25  96 CALM      30.32R VSB<1/4
GARRISON         N/A     32  31  96 NW6       30.38R WCI  26
HETTINGER      FAIR      22  20  92 CALM      30.34S
$$

NDZ004>008-012>016-024-026-027-054-191200-
...NORTHEAST NORTH DAKOTA...

CITY           SKY/WX    TMP DP  RH WIND       PRES   REMARKS
GRAND FORKS    MOCLDY    31  28  89 CALM      30.35S
GRAND FORKS AF FAIR      29  29  97 CALM      30.34S
DEVILS LAKE    FAIR      27  24  89 CALM      30.35S
$$

NDZ022-023-025-028>030-036>039-047>053-191200-
...SOUTHEAST NORTH DAKOTA...

CITY           SKY/WX    TMP DP  RH WIND       PRES   REMARKS
JAMESTOWN      FAIR      27  25  92 NW6       30.36R WCI  20
FARGO          FAIR      29  27  92 CALM      30.36R
WAHPETON       FAIR      30  28  93 CALM      30.38R
$$




USA.gov is the U.S. government's official web portal to all federal, state and local government web resources and services.